Location: Four Corners
(38.2757°N, 122.4608°W)
Time: 23:04:03
(UTC+00:00)

Cosmos 2251 Rocket - Pass Details

Date: 08 December 2019
Orbit: 765 x 791 km, 74.0° (Epoch: 26 January)

Event Time Altitude Azimuth Distance (km) Brightness Sun altitude
Rises 01:44:16 0° 197° (SSW) 3,258 7.3 -10.6°
Reaches altitude 10° 01:46:39 10° 198° (SSW) 2,330 6.6 -11.1°
Maximum altitude 01:51:57 87° 285° (WNW) 785 3.6 -12.0°
Drops below altitude 10° 01:57:15 10° 18° (NNE) 2,328 5.7 -13.0°
Enters shadow 01:58:54 - 18° (NNE) 2,965 6.2 -13.3°
